User: anonymous   Login
Location: Bouchavesnes-Bergen
(49.9859°N, 2.9203°E)
Time: 01:34:27
(UTC+00:00)
Language:

Cosmos 1602 - Orbit

View from above orbital plane
View from above orbital plane
View from above satellite
View from above satellite

Ground track
Ground track

The orbit data is extracted from the following two-line orbital elements,

1 15331U 84105A   21125.41742046  .00000703  00000-0  36537-4 0  9998
2 15331  82.5405  13.7862 0016085  68.7794 291.5154 15.14312188996114
Epoch (UTC): 05 May 2021 10:01:05
Eccentricity: 0.0016085
inclination: 82.5405°
perigee height: 512 km
apogee height: 534 km
right ascension of ascending node: 13.7862°
argument of perigee: 68.7794°
revolutions per day: 15.14312188
mean anomaly at epoch: 291.5154°
orbit number at epoch: 99611

The dashed part of the orbit path shows where the satellite is in the earth's shadow,  

DLR